Location: *
(50.3440°N, 18.6237°E)
Time: 18:11:55
(UTC+00:00)

Cosmos 1538 Rocket - Pass Details

Date: 30 November 2020
Orbit: 752 x 791 km, 74.0° (Epoch: 17 January)

Event Time Altitude Azimuth Distance (km) Brightness Sun altitude
Rises 16:47:28 0° 195° (SSW) 3,270 7.6 -18.6°
Reaches altitude 10° 16:49:51 10° 194° (SSW) 2,349 6.8 -19.0°
Maximum altitude 16:55:11 73° 111° (ESE) 830 3.9 -19.8°
Enters shadow 16:58:10 27° 31° (NNE) 1,486 5.1 -20.3°
